Simultaneous Nadir Overpasses (SNOs) Predictions

Prediction of SNOs between GOES-16 and METOP-C Satellite Orbit:

Table of predicted SNOs for the next 14.0 days since TLE Epoch: 8/28/2022
Index Date Time (GOES-16) GOES-16 Lat,Lon METOP-C Lat,Lon Distance(km) Time Diff (sec)
1 08/28/2022 02:19:07 0.03, -75.20 0.77, -71.96 369.73 80
2 08/29/2022 14:35:18 -0.04, -75.23 0.23, -76.53 147.55 80
3 08/30/2022 14:17:18 -0.03, -75.23 -0.86, -71.53 422.67 80
4 09/01/2022 02:33:37 0.03, -75.24 -0.16, -76.12 100.90 80
5 09/02/2022 02:15:37 0.03, -75.25 0.92, -71.12 469.39 80
6 09/03/2022 14:31:48 -0.03, -75.27 0.05, -75.69 47.33 80
7 09/06/2022 02:30:07 0.03, -75.28 0.01, -75.28 2.34 80
8 09/08/2022 14:28:18 -0.02, -75.33 -0.14, -74.86 54.38 80
9 09/10/2022 02:49:57 0.01, -75.34 -0.90, -79.45 467.87 80
